This demonstration page uses our WeatherBlox Daily Observations layout. Learn more.

Left ArrowRight Arrow

Hourly Observations for July 7, 2018

Temp ( °F °C ) Dew Point ( °F °C ) Humidity (%) Winds ( mph kmh ) Pressure ( in mb ) Visibility ( mi km ) Precip ( " mm )
12:53 am 00:53 Clear 74 23.3 64 17.8 71 71 ESE 9 15 30.09 1019 10 16 0.00 0.00
1:53 am 01:53 Clear 72 22.2 64 17.8 76 76 Calm 30.08 1019 10 16 0.00 0.00
2:53 am 02:53 Clear 71 21.7 64 17.8 79 79 NNW 6 9 30.07 1018 10 16 0.00 0.00
3:53 am 03:53 Clear 70 21.1 63 17.2 79 79 N 6 9 30.07 1018 10 16 0.00 0.00
4:53 am 04:53 Clear 69 20.6 64 17.8 84 84 N 6 9 30.08 1019 10 16 0.00 0.00
5:53 am 05:53 Clear 69 20.6 65 18.3 87 87 NNW 7 11 30.08 1019 10 16 0.00 0.00
6:53 am 06:53 Clear 69 20.6 65 18.3 87 87 N 6 9 30.09 1019 10 16 0.00 0.00
7:53 am 07:53 Sunny 70 21.1 65 18.3 84 84 N 6 9 30.11 1020 10 16 0.00 0.00
8:53 am 08:53 Mostly Cloudy 76 24.4 66 18.9 72 72 E 6 9 30.11 1020 10 16 0.00 0.00
9:53 am 09:53 Mostly Sunny 77 25 66 18.9 69 69 ESE 5 7 30.13 1020 10 16 0.00 0.00
10:53 am 10:53 Partly Cloudy 80 26.7 66 18.9 62 62 ESE 7 11 30.12 1020 10 16 0.00 0.00
11:53 am 11:53 Partly Cloudy 83 28.3 66 18.9 57 57 undefined N/A 30.10 1019 10 16 0.00 0.00
12:25 pm 12:25 Partly Cloudy with Nearby Thunderstorms 85 29.4 65 18.3 51 51 ESE 7 11 30.03 1017 10 16 0.00 0.00
12:53 pm 12:53 Partly Cloudy 85 29.4 66 18.9 53 53 ESE 12 19 30.08 1019 10 16 0.00 0.00
1:15 pm 13:15 Partly Cloudy with Nearby Thunderstorms 85 29.4 66 18.9 53 53 ESE 9 15 30.00 1016 10 16 0.00 0.00
1:53 pm 13:53 Cloudy with Nearby Thunderstorms 82 27.8 63 17.2 53 53 NNW 15 24 30.07 1018 10 16 0.00 0.00
2:00 pm 14:00 Cloudy 81 27.2 63 17.2 54 54 NNW 15 24 30.00 1016 10 16 0.00 0.00
2:22 pm 14:22 Cloudy with Thunderstorms 77 25 65 18.3 66 66 NNW 16 26 30.03 1017 10 16 0.00 0.00
2:53 pm 14:53 Partly Cloudy with Thunderstorms N/A N/A N/A undefined N/A N/A N/A 0.00 0.00
3:18 pm 15:18 undefined 72 22 N/A N/A N 10 17 30.06 1018 N/A 0.00 0.00
3:53 pm 15:53 Mostly Sunny 74 23.3 69 20.6 85 85 N 8 13 30.04 1017 10 16 0.00 0.00
4:53 pm 16:53 Sunny 79 26.1 68 20 69 69 NW 10 17 30.00 1016 10 16 0.00 0.00
5:13 pm 17:13 Partly Cloudy with Nearby Thunderstorms 80 26.7 68 20 67 67 VRB 5 7 29.94 1014 10 16 0.00 0.00
5:21 pm 17:21 Partly Cloudy with Thunderstorms 82 27.8 66 18.9 58 58 SSE 14 22 29.94 1014 10 16 0.00 0.00
5:39 pm 17:39 Mostly Cloudy with Rain 75 23.9 69 20.6 82 82 SSE 10 17 29.97 1015 4 6 0.00 0.00
5:46 pm 17:46 Mostly Cloudy with Nearby Thunderstorms 75 23.9 69 20.6 82 82 SSE 9 15 29.94 1014 5 8 0.00 0.00
5:53 pm 17:53 Cloudy with Nearby Thunderstorms 75 23.9 69 20.6 82 82 S 6 9 29.99 1016 9 14 0.00 0.00
6:16 pm 18:16 Partly Cloudy with Thunderstorms 79 26.1 68 20 69 69 Calm 29.91 1013 10 16 0.00 0.00
6:35 pm 18:35 Sunny 81 27.2 64 17.8 57 57 Calm 29.91 1013 10 16 0.00 0.00
6:53 pm 18:53 Sunny 81 27.2 67 19.4 62 62 VRB 3 6 29.98 1015 10 16 0.00 0.00
7:53 pm 19:53 Sunny 80 26.7 66 18.9 62 62 Calm 29.98 1015 10 16 0.00 0.00
8:53 pm 20:53 Mostly Sunny 78 25.6 67 19.4 69 69 S 7 11 29.98 1015 10 16 0.00 0.00
9:53 pm 21:53 Mostly Cloudy 77 25 70 21.1 79 79 ESE 3 6 30.00 1016 10 16 0.00 0.00
10:53 pm 22:53 Cloudy with Nearby Thunderstorms 72 22.2 63 17.2 73 73 ENE 17 28 30.07 1018 10 16 0.00 0.00
11:26 pm 23:26 Cloudy with Thunderstorms 68 20 66 18.9 93 93 NNE 10 17 30.09 1019 7 11 0.00 0.00
11:49 pm 23:49 Mostly Cloudy with Nearby Thunderstorms 68 20 66 19 94 94 NNW 8 13 30.09 1019 10 16 0.00 0.00
11:53 pm 23:53 Mostly Cloudy with Light Rain 68 20 66 18.9 93 93 NNW 7 11 30.05 1018 10 16 0.00 0.00

Powered by AerisWeather